Location: Burleson Alternative School
(32.5290°N, 97.3406°W)
Time: 03:12:23
(UTC+00:00)

Courier 1B Rocket - Pass Details

Date: 17 November 2024
Orbit: 920 x 1201 km, 28.2° (Epoch: 03 December)

Event Time Altitude Azimuth Distance (km) Brightness Sun altitude
Rises 02:22:33 0° 267° (W) 3,612 9.0 -36.8°
Reaches altitude 10° 02:25:57 10° 250° (WSW) 2,634 7.9 -37.5°
Enters shadow 02:29:45 19° 213° (SSW) 2,032 6.9 -38.3°
